Time,TemperatureF,DewpointF,PressureIn,WindDirection,WindDirectionDegrees,WindSpeedMPH,WindSpeedGustMPH,Humidity,HourlyPrecipIn,Conditions,Clouds,dailyrainin,SoftwareType,DateUTC
2013-05-21 00:03:00,54.6,46.8,23.30,West,268,0.0,0.0,75,0.00,,---,0.00,VWS V13.01,2013-05-21 07:03:00,
2013-05-21 00:08:00,54.6,46.8,23.30,West,268,0.0,0.0,75,0.00,,---,0.00,VWS V13.01,2013-05-21 07:08:00,
2013-05-21 00:13:00,54.5,46.8,23.30,West,268,0.0,0.0,75,0.00,,---,0.00,VWS V13.01,2013-05-21 07:13:00,
2013-05-21 00:18:00,54.4,46.7,23.30,West,268,0.0,0.0,75,0.00,,---,0.00,VWS V13.01,2013-05-21 07:18:00,
2013-05-21 00:23:00,54.4,46.7,23.30,West,268,0.0,1.0,75,0.00,,---,0.00,VWS V13.01,2013-05-21 07:23:00,
2013-05-21 00:28:00,54.4,46.7,23.30,West,268,0.0,1.0,75,0.00,,---,0.00,VWS V13.01,2013-05-21 07:28:00,
2013-05-21 00:33:00,54.4,46.3,23.30,West,268,0.0,1.0,74,0.00,,---,0.00,VWS V13.01,2013-05-21 07:33:00,
2013-05-21 00:38:00,54.4,46.7,23.30,West,268,0.0,1.0,75,0.00,,---,0.00,VWS V13.01,2013-05-21 07:38:00,
2013-05-21 00:43:00,54.2,46.5,23.30,West,268,0.0,1.0,75,0.00,,---,0.00,VWS V13.01,2013-05-21 07:43:00,
2013-05-21 00:48:00,54.1,46.4,23.30,West,268,0.0,1.0,75,0.00,,---,0.00,VWS V13.01,2013-05-21 07:48:00,
2013-05-21 00:53:00,54.0,46.3,23.30,West,268,0.0,1.0,75,0.00,,---,0.00,VWS V13.01,2013-05-21 07:53:00,
2013-05-21 00:58:00,54.0,46.3,23.30,West,268,0.0,1.0,75,0.00,,---,0.00,VWS V13.01,2013-05-21 07:58:00,
2013-05-21 01:06:00,53.9,46.5,23.30,West,270,0.0,1.0,76,0.00,,---,0.00,VWS V13.01,2013-05-21 08:06:00,
2013-05-21 01:11:00,53.9,45.8,23.30,West,268,0.0,0.0,74,0.00,,---,0.00,VWS V13.01,2013-05-21 08:11:00,
2013-05-21 01:16:00,53.8,45.7,23.30,West,268,0.0,0.0,74,0.00,,---,0.00,VWS V13.01,2013-05-21 08:16:00,
2013-05-21 01:21:00,53.8,45.7,23.30,West,268,0.0,0.0,74,0.00,,---,0.00,VWS V13.01,2013-05-21 08:21:00,
2013-05-21 01:26:00,53.6,45.5,23.30,West,268,0.0,0.0,74,0.00,,---,0.00,VWS V13.01,2013-05-21 08:26:00,
2013-05-21 01:31:00,53.5,45.4,23.30,West,268,0.0,0.0,74,0.00,,---,0.00,VWS V13.01,2013-05-21 08:31:00,
2013-05-21 01:36:00,53.3,45.6,23.30,West,268,0.0,1.0,75,0.00,,---,0.00,VWS V13.01,2013-05-21 08:36:00,
2013-05-21 01:41:00,53.2,45.5,23.30,West,268,0.0,1.0,75,0.00,,---,0.00,VWS V13.01,2013-05-21 08:41:00,
2013-05-21 01:46:00,53.2,45.5,23.30,West,268,0.0,1.0,75,0.00,,---,0.00,VWS V13.01,2013-05-21 08:46:00,
2013-05-21 01:51:00,53.3,45.6,23.30,West,268,0.0,1.0,75,0.00,,---,0.00,VWS V13.01,2013-05-21 08:51:00,
2013-05-21 01:56:00,53.3,45.6,23.30,West,268,0.0,1.0,75,0.00,,---,0.00,VWS V13.01,2013-05-21 08:56:00,
2013-05-21 02:01:00,53.3,45.6,23.30,West,268,0.0,1.0,75,0.00,,---,0.00,VWS V13.01,2013-05-21 09:01:00,
2013-05-21 02:06:00,53.3,45.6,23.30,West,268,0.0,0.0,75,0.00,,---,0.00,VWS V13.01,2013-05-21 09:06:00,
2013-05-21 02:11:00,53.3,45.9,23.30,West,268,0.0,1.0,76,0.00,,---,0.00,VWS V13.01,2013-05-21 09:11:00,
2013-05-21 02:16:00,53.4,46.0,23.30,West,268,0.0,2.0,76,0.00,,---,0.00,VWS V13.01,2013-05-21 09:16:00,
2013-05-21 02:21:00,53.5,46.1,23.30,West,268,0.0,2.0,76,0.00,,---,0.00,VWS V13.01,2013-05-21 09:21:00,
2013-05-21 02:26:00,53.5,45.8,23.30,West,268,0.0,2.0,75,0.00,,---,0.00,VWS V13.01,2013-05-21 09:26:00,
2013-05-21 02:31:00,53.7,46.0,23.30,West,268,0.0,2.0,75,0.00,,---,0.00,VWS V13.01,2013-05-21 09:31:00,
2013-05-21 02:36:00,53.8,45.7,23.30,West,268,0.0,2.0,74,0.00,,---,0.00,VWS V13.01,2013-05-21 09:36:00,
2013-05-21 02:41:00,53.9,45.5,23.30,West,268,0.0,2.0,73,0.00,,---,0.00,VWS V13.01,2013-05-21 09:41:00,
2013-05-21 02:46:00,54.1,45.3,23.30,West,268,0.0,2.0,72,0.00,,---,0.00,VWS V13.01,2013-05-21 09:46:00,
2013-05-21 02:51:00,54.2,45.0,23.30,West,268,0.0,2.0,71,0.00,,---,0.00,VWS V13.01,2013-05-21 09:51:00,
2013-05-21 02:56:00,54.3,45.1,23.30,West,268,0.0,2.0,71,0.00,,---,0.00,VWS V13.01,2013-05-21 09:56:00,
2013-05-21 03:01:00,54.4,45.6,23.30,West,268,0.0,2.0,72,0.00,,---,0.00,VWS V13.01,2013-05-21 10:01:00,
2013-05-21 03:06:00,54.5,45.3,23.30,West,268,0.0,0.0,71,0.00,,---,0.00,VWS V13.01,2013-05-21 10:06:00,
2013-05-21 03:11:00,54.5,44.5,23.30,West,268,0.0,1.0,69,0.00,,---,0.00,VWS V13.01,2013-05-21 10:11:00,
2013-05-21 03:16:00,54.7,44.4,23.30,West,268,0.0,1.0,68,0.00,,---,0.00,VWS V13.01,2013-05-21 10:16:00,
2013-05-21 03:21:00,54.9,44.5,23.30,West,268,0.0,2.0,68,0.00,,---,0.00,VWS V13.01,2013-05-21 10:21:00,
2013-05-21 03:26:00,55.0,44.3,23.30,West,268,0.0,2.0,67,0.00,,---,0.00,VWS V13.01,2013-05-21 10:26:00,
2013-05-21 03:31:00,55.2,43.7,23.30,West,268,0.0,2.0,65,0.00,,---,0.00,VWS V13.01,2013-05-21 10:31:00,
2013-05-21 03:36:00,55.3,43.8,23.30,West,265,0.0,2.0,65,0.00,,---,0.00,VWS V13.01,2013-05-21 10:36:00,
2013-05-21 03:41:00,55.4,43.4,29.54,West,265,0.0,2.0,64,0.00,,---,0.00,VWS V13.01,2013-05-21 10:41:00,
2013-05-21 03:46:00,55.6,43.2,30.67,West,265,0.0,2.0,63,0.00,,---,0.00,VWS V13.01,2013-05-21 10:46:00,
2013-05-21 03:51:00,55.7,43.3,30.67,West,265,0.0,2.0,63,0.00,,---,0.00,VWS V13.01,2013-05-21 10:51:00,
2013-05-21 03:56:00,55.8,43.0,30.67,West,265,0.0,2.0,62,0.00,,---,0.00,VWS V13.01,2013-05-21 10:56:00,
2013-05-21 04:01:00,56.1,43.3,30.67,WSW,249,0.0,2.0,62,0.00,,---,0.00,VWS V13.01,2013-05-21 11:01:00,
2013-05-21 04:06:00,56.2,43.4,30.67,WSW,249,0.0,0.0,62,0.00,,---,0.00,VWS V13.01,2013-05-21 11:06:00,
2013-05-21 04:11:00,56.2,43.4,30.67,WSW,249,0.0,0.0,62,0.00,,---,0.00,VWS V13.01,2013-05-21 11:11:00,
2013-05-21 04:16:00,56.2,43.8,17.20,WSW,249,0.0,0.0,63,0.00,,---,0.00,VWS V13.01,2013-05-21 11:16:00,
2013-05-21 04:21:00,56.1,43.7,17.20,WSW,249,0.0,0.0,63,0.00,,---,0.00,VWS V13.01,2013-05-21 11:21:00,
2013-05-21 04:26:00,56.0,43.2,17.20,WSW,249,0.0,1.0,62,0.00,,---,0.00,VWS V13.01,2013-05-21 11:26:00,
2013-05-21 04:31:00,56.0,43.2,20.64,WSW,249,0.0,1.0,62,0.00,,---,0.00,VWS V13.01,2013-05-21 11:31:00,
2013-05-21 04:36:00,56.0,43.2,24.74,WSW,249,0.0,1.0,62,0.00,,---,0.00,VWS V13.01,2013-05-21 11:36:00,
2013-05-21 04:41:00,56.0,43.2,24.74,WSW,249,0.0,1.0,62,0.00,,---,0.00,VWS V13.01,2013-05-21 11:41:00,
2013-05-21 04:46:00,55.9,43.1,24.74,WSW,249,0.0,1.0,62,0.00,,---,0.00,VWS V13.01,2013-05-21 11:46:00,
2013-05-21 04:51:00,55.9,43.1,24.74,WSW,246,0.0,1.0,62,0.00,,---,0.00,VWS V13.01,2013-05-21 11:51:00,
2013-05-21 04:56:00,55.9,43.1,24.74,WSW,246,0.0,1.0,62,0.00,,---,0.00,VWS V13.01,2013-05-21 11:56:00,
2013-05-21 05:01:00,55.9,43.9,24.74,WSW,246,0.0,1.0,64,0.00,,---,0.00,VWS V13.01,2013-05-21 12:01:00,
2013-05-21 05:06:00,55.7,43.7,24.74,WSW,246,0.0,0.0,64,0.00,,---,0.00,VWS V13.01,2013-05-21 12:06:00,
2013-05-21 05:11:00,55.6,43.6,24.74,WSW,246,0.0,0.0,64,0.00,,---,0.00,VWS V13.01,2013-05-21 12:11:00,
2013-05-21 05:16:00,55.6,43.6,24.74,WSW,246,0.0,0.0,64,0.00,,---,0.00,VWS V13.01,2013-05-21 12:16:00,
2013-05-21 05:21:00,55.5,43.9,24.74,WNW,296,1.0,5.0,65,0.00,,---,0.00,VWS V13.01,2013-05-21 12:21:00,
2013-05-21 05:26:00,55.5,43.9,24.74,WNW,288,0.0,5.0,65,0.00,,---,0.00,VWS V13.01,2013-05-21 12:26:00,
2013-05-21 05:31:00,55.5,43.9,24.74,West,271,2.0,5.0,65,0.00,,---,0.00,VWS V13.01,2013-05-21 12:31:00,
2013-05-21 05:36:00,55.6,43.6,24.74,NW,304,3.0,7.0,64,0.00,,---,0.00,VWS V13.01,2013-05-21 12:36:00,
2013-05-21 05:41:00,55.4,43.8,24.74,West,281,2.0,7.0,65,0.00,,---,0.00,VWS V13.01,2013-05-21 12:41:00,
2013-05-21 05:46:00,55.3,43.8,24.74,WNW,286,0.0,11.0,65,0.00,,---,0.00,VWS V13.01,2013-05-21 12:46:00,
2013-05-21 05:51:00,55.1,43.6,23.94,West,265,0.0,11.0,65,0.00,,---,0.00,VWS V13.01,2013-05-21 12:51:00,
2013-05-21 05:56:00,55.0,43.5,23.94,SW,215,5.0,11.0,65,0.00,,---,0.00,VWS V13.01,2013-05-21 12:56:00,
2013-05-21 06:01:00,54.9,43.4,23.94,SW,235,0.0,11.0,65,0.00,,---,0.00,VWS V13.01,2013-05-21 13:01:00,
2013-05-21 06:06:00,54.9,43.0,23.94,North,355,1.0,6.0,64,0.00,,---,0.00,VWS V13.01,2013-05-21 13:06:00,
2013-05-21 06:11:00,54.8,43.3,23.94,NW,313,0.0,10.0,65,0.00,,---,0.00,VWS V13.01,2013-05-21 13:11:00,
2013-05-21 06:16:00,54.9,43.4,23.94,ENE,63,1.0,13.0,65,0.00,,---,0.00,VWS V13.01,2013-05-21 13:16:00,
2013-05-21 06:21:00,54.8,42.9,23.94,SW,227,1.0,13.0,64,0.00,,---,0.00,VWS V13.01,2013-05-21 13:21:00,
2013-05-21 06:26:00,54.9,43.0,23.94,NW,314,0.0,13.0,64,0.00,,---,0.00,VWS V13.01,2013-05-21 13:26:00,
2013-05-21 06:31:00,54.9,43.0,25.27,NW,313,3.0,13.0,64,0.00,,---,0.00,VWS V13.01,2013-05-21 13:31:00,
2013-05-21 06:36:00,55.0,43.1,25.27,NW,310,6.0,13.0,64,0.00,,---,0.00,VWS V13.01,2013-05-21 13:36:00,
2013-05-21 06:41:00,55.0,43.1,27.53,WSW,245,4.0,13.0,64,0.00,,---,0.00,VWS V13.01,2013-05-21 13:41:00,
2013-05-21 06:46:00,55.1,43.2,29.78,SW,222,3.0,13.0,64,0.00,,---,0.00,VWS V13.01,2013-05-21 13:46:00,
2013-05-21 06:51:00,55.1,43.2,29.78,SSW,204,3.0,13.0,64,0.00,,---,0.00,VWS V13.01,2013-05-21 13:51:00,
2013-05-21 06:56:00,55.3,43.3,29.78,NW,315,7.0,13.0,64,0.00,,---,0.00,VWS V13.01,2013-05-21 13:56:00,
2013-05-21 07:01:00,55.4,43.4,29.78,WSW,244,0.0,13.0,64,0.00,,---,0.00,VWS V13.01,2013-05-21 14:01:00,
2013-05-21 07:06:00,55.5,43.9,29.78,SW,233,5.0,9.0,65,0.00,,---,0.00,VWS V13.01,2013-05-21 14:06:00,
2013-05-21 07:11:00,55.6,44.0,29.78,West,276,4.0,9.0,65,0.00,,---,0.00,VWS V13.01,2013-05-21 14:11:00,
2013-05-21 07:16:00,55.7,44.5,29.78,WNW,283,0.0,9.0,66,0.00,,---,0.00,VWS V13.01,2013-05-21 14:16:00,
2013-05-21 07:21:00,56.0,44.8,29.78,NNW,330,3.0,9.0,66,0.00,,---,0.00,VWS V13.01,2013-05-21 14:21:00,
2013-05-21 07:26:00,56.3,45.1,29.78,West,280,0.0,11.0,66,0.00,,---,0.00,VWS V13.01,2013-05-21 14:26:00,
2013-05-21 07:31:00,56.6,45.4,29.78,SW,233,1.0,11.0,66,0.00,,---,0.00,VWS V13.01,2013-05-21 14:31:00,
2013-05-21 07:36:00,57.0,45.4,29.78,West,274,11.0,15.0,65,0.00,,---,0.00,VWS V13.01,2013-05-21 14:36:00,
2013-05-21 07:41:00,57.3,45.2,29.78,West,259,0.0,15.0,64,0.00,,---,0.00,VWS V13.01,2013-05-21 14:41:00,
2013-05-21 07:46:00,57.8,45.7,29.78,SSW,206,0.0,15.0,64,0.00,,---,0.00,VWS V13.01,2013-05-21 14:46:00,
2013-05-21 07:51:00,58.4,45.9,29.78,SW,236,0.0,15.0,63,0.00,,---,0.00,VWS V13.01,2013-05-21 14:51:00,
2013-05-21 07:56:00,58.6,46.1,29.78,NW,321,1.0,15.0,63,0.00,,---,0.00,VWS V13.01,2013-05-21 14:56:00,
2013-05-21 08:00:00,58.7,46.6,29.78,West,263,9.0,15.0,64,0.00,,---,0.00,VWS V13.01,2013-05-21 15:00:00,
2013-05-21 08:05:00,58.6,46.5,29.78,West,275,6.0,16.0,64,0.00,,---,0.00,VWS V13.01,2013-05-21 15:05:00,
2013-05-21 08:10:00,58.6,47.3,29.78,WSW,257,5.0,16.0,66,0.00,,---,0.00,VWS V13.01,2013-05-21 15:10:00,
2013-05-21 08:15:00,58.8,47.9,29.78,NNE,28,0.0,16.0,67,0.00,,---,0.00,VWS V13.01,2013-05-21 15:15:00,
2013-05-21 08:20:00,59.1,47.8,29.78,NW,305,1.0,16.0,66,0.00,,---,0.00,VWS V13.01,2013-05-21 15:20:00,
2013-05-21 08:25:00,59.3,48.0,29.78,NW,323,0.0,16.0,66,0.00,,---,0.00,VWS V13.01,2013-05-21 15:25:00,
2013-05-21 08:30:00,59.6,48.2,29.78,WNW,284,1.0,16.0,66,0.00,,---,0.00,VWS V13.01,2013-05-21 15:30:00,
2013-05-21 08:35:00,59.9,48.5,29.78,WNW,287,10.0,16.0,66,0.00,,---,0.00,VWS V13.01,2013-05-21 15:35:00,
2013-05-21 08:40:00,60.1,48.7,29.78,NNW,340,1.0,16.0,66,0.00,,---,0.00,VWS V13.01,2013-05-21 15:40:00,
2013-05-21 08:45:00,60.4,49.0,29.78,WNW,286,1.0,16.0,66,0.00,,---,0.00,VWS V13.01,2013-05-21 15:45:00,
2013-05-21 08:50:00,60.7,49.3,29.78,NW,319,4.0,16.0,66,0.00,,---,0.00,VWS V13.01,2013-05-21 15:50:00,
2013-05-21 08:55:00,60.3,48.9,29.78,WNW,282,6.0,16.0,66,0.00,,---,0.00,VWS V13.01,2013-05-21 15:55:00,
2013-05-21 09:00:00,59.9,49.3,29.78,SW,229,0.0,16.0,68,0.00,,---,0.00,VWS V13.01,2013-05-21 16:00:00,
2013-05-21 09:05:00,59.9,49.3,29.78,West,276,2.0,14.0,68,0.00,,---,0.00,VWS V13.01,2013-05-21 16:05:00,
2013-05-21 09:10:00,60.0,49.0,29.78,WNW,284,2.0,14.0,67,0.00,,---,0.00,VWS V13.01,2013-05-21 16:10:00,
2013-05-21 09:15:00,60.2,49.6,29.78,WSW,257,0.0,14.0,68,0.00,,---,0.00,VWS V13.01,2013-05-21 16:15:00,
2013-05-21 09:20:00,60.6,49.6,29.78,WNW,298,4.0,15.0,67,0.00,,---,0.00,VWS V13.01,2013-05-21 16:20:00,
2013-05-21 09:25:00,61.2,50.6,29.78,WSW,247,5.0,15.0,68,0.00,,---,0.00,VWS V13.01,2013-05-21 16:25:00,
2013-05-21 09:30:00,61.5,49.6,29.78,NW,304,5.0,15.0,65,0.00,,---,0.00,VWS V13.01,2013-05-21 16:30:00,
2013-05-21 09:35:00,61.5,49.6,29.78,WNW,297,0.0,15.0,65,0.00,,---,0.00,VWS V13.01,2013-05-21 16:35:00,
2013-05-21 09:40:00,61.7,49.8,29.78,NE,42,1.0,15.0,65,0.00,,---,0.00,VWS V13.01,2013-05-21 16:40:00,
2013-05-21 09:45:00,62.1,49.8,29.78,NNW,342,7.0,15.0,64,0.00,,---,0.00,VWS V13.01,2013-05-21 16:45:00,
2013-05-21 09:50:00,62.0,49.7,29.78,North,5,4.0,15.0,64,0.00,,---,0.00,VWS V13.01,2013-05-21 16:50:00,
2013-05-21 09:55:00,62.0,49.7,29.78,NW,319,6.0,15.0,64,0.00,,---,0.00,VWS V13.01,2013-05-21 16:55:00,
2013-05-21 10:00:00,62.0,49.7,29.78,WNW,298,6.0,15.0,64,0.00,,---,0.00,VWS V13.01,2013-05-21 17:00:00,
2013-05-21 10:05:00,61.6,48.9,29.78,NNW,337,4.0,12.0,63,0.00,,---,0.00,VWS V13.01,2013-05-21 17:05:00,
2013-05-21 10:10:00,61.7,49.4,29.78,West,261,3.0,12.0,64,0.00,,---,0.00,VWS V13.01,2013-05-21 17:10:00,
2013-05-21 10:15:00,62.1,48.9,29.78,NNW,332,4.0,12.0,62,0.00,,---,0.00,VWS V13.01,2013-05-21 17:15:00,
2013-05-21 10:20:00,62.1,49.8,29.78,WSW,238,3.0,12.0,64,0.00,,---,0.00,VWS V13.01,2013-05-21 17:20:00,
2013-05-21 10:25:00,62.5,49.3,29.78,WNW,295,9.0,13.0,62,0.00,,---,0.00,VWS V13.01,2013-05-21 17:25:00,
2013-05-21 10:30:00,62.6,49.4,29.78,WNW,284,3.0,13.0,62,0.00,,---,0.00,VWS V13.01,2013-05-21 17:30:00,
2013-05-21 10:35:00,63.4,49.3,29.78,West,277,7.0,13.0,60,0.00,,---,0.00,VWS V13.01,2013-05-21 17:35:00,
2013-05-21 10:40:00,63.4,49.3,29.78,SW,225,0.0,13.0,60,0.00,,---,0.00,VWS V13.01,2013-05-21 17:40:00,
2013-05-21 10:45:00,63.5,49.4,29.78,WNW,292,3.0,13.0,60,0.00,,---,0.00,VWS V13.01,2013-05-21 17:45:00,
2013-05-21 10:50:00,63.6,49.0,29.78,North,9,1.0,15.0,59,0.00,,---,0.00,VWS V13.01,2013-05-21 17:50:00,
2013-05-21 10:55:00,63.9,48.8,29.78,NNW,328,2.0,15.0,58,0.00,,---,0.00,VWS V13.01,2013-05-21 17:55:00,
2013-05-21 11:00:00,64.2,49.1,29.78,NNW,329,2.0,15.0,58,0.00,,---,0.00,VWS V13.01,2013-05-21 18:00:00,
2013-05-21 11:05:00,64.3,48.3,29.78,WNW,284,5.0,11.0,56,0.00,,---,0.00,VWS V13.01,2013-05-21 18:05:00,
2013-05-21 11:10:00,64.4,47.9,29.78,NNW,341,3.0,11.0,55,0.00,,---,0.00,VWS V13.01,2013-05-21 18:10:00,
2013-05-21 11:15:00,64.4,47.9,29.78,NW,314,4.0,15.0,55,0.00,,---,0.00,VWS V13.01,2013-05-21 18:15:00,
2013-05-21 11:20:00,64.6,48.1,29.78,NW,311,9.0,15.0,55,0.00,,---,0.00,VWS V13.01,2013-05-21 18:20:00,
2013-05-21 11:25:00,64.1,47.1,29.78,NNW,336,5.0,15.0,54,0.00,,---,0.00,VWS V13.01,2013-05-21 18:25:00,
2013-05-21 11:30:00,63.9,47.0,29.78,NW,317,6.0,15.0,54,0.00,,---,0.00,VWS V13.01,2013-05-21 18:30:00,
2013-05-21 11:35:00,64.0,47.5,29.78,NW,306,2.0,15.0,55,0.00,,---,0.00,VWS V13.01,2013-05-21 18:35:00,
2013-05-21 11:40:00,64.4,47.9,29.78,WNW,284,10.0,15.0,55,0.00,,---,0.00,VWS V13.01,2013-05-21 18:40:00,
2013-05-21 11:45:00,64.6,47.6,29.78,WNW,287,6.0,15.0,54,0.00,,---,0.00,VWS V13.01,2013-05-21 18:45:00,
2013-05-21 11:50:00,64.7,47.7,29.78,West,269,6.0,15.0,54,0.00,,---,0.00,VWS V13.01,2013-05-21 18:50:00,
2013-05-21 11:55:00,64.7,47.2,29.78,NW,308,2.0,15.0,53,0.00,,---,0.00,VWS V13.01,2013-05-21 18:55:00,
2013-05-21 12:00:00,64.7,46.7,29.78,NW,320,5.0,15.0,52,0.00,,---,0.00,VWS V13.01,2013-05-21 19:00:00,
2013-05-21 12:05:00,64.8,47.3,29.78,North,355,9.0,13.0,53,0.00,,---,0.00,VWS V13.01,2013-05-21 19:05:00,
2013-05-21 12:10:00,65.0,47.0,29.54,NW,313,5.0,18.0,52,0.00,,---,0.00,VWS V13.01,2013-05-21 19:10:00,
2013-05-21 12:15:00,64.9,47.4,29.54,West,281,5.0,18.0,53,0.00,,---,0.00,VWS V13.01,2013-05-21 19:15:00,
2013-05-21 12:20:00,64.9,46.4,29.54,NW,304,7.0,18.0,51,0.00,,---,0.00,VWS V13.01,2013-05-21 19:20:00,
2013-05-21 12:25:00,65.0,46.5,29.54,West,280,5.0,18.0,51,0.00,,---,0.00,VWS V13.01,2013-05-21 19:25:00,
2013-05-21 12:30:00,65.0,45.9,29.54,North,350,11.0,18.0,50,0.00,,---,0.00,VWS V13.01,2013-05-21 19:30:00,
2013-05-21 12:35:00,64.8,46.3,29.54,NNW,327,6.0,18.0,51,0.00,,---,0.00,VWS V13.01,2013-05-21 19:35:00,
2013-05-21 12:40:00,64.9,45.8,29.54,NNW,344,5.0,20.0,50,0.00,,---,0.00,VWS V13.01,2013-05-21 19:40:00,
2013-05-21 12:45:00,64.7,45.7,29.54,NW,319,6.0,20.0,50,0.00,,---,0.00,VWS V13.01,2013-05-21 19:45:00,
2013-05-21 12:50:00,65.2,46.1,29.54,West,281,9.0,28.0,50,0.00,,---,0.00,VWS V13.01,2013-05-21 19:50:00,
2013-05-21 12:55:00,65.3,46.2,23.45,WNW,284,9.0,28.0,50,0.00,,---,0.00,VWS V13.01,2013-05-21 19:55:00,
2013-05-21 13:00:00,65.5,46.4,29.54,WSW,250,2.0,28.0,50,0.00,,---,0.00,VWS V13.01,2013-05-21 20:00:00,
2013-05-21 13:05:00,65.7,46.6,29.54,NW,321,7.0,16.0,50,0.00,,---,0.00,VWS V13.01,2013-05-21 20:05:00,
2013-05-21 13:10:00,66.0,47.4,29.54,West,277,4.0,16.0,51,0.00,,---,0.00,VWS V13.01,2013-05-21 20:10:00,
2013-05-21 13:15:00,66.8,47.0,29.54,WNW,284,7.0,16.0,49,0.00,,---,0.00,VWS V13.01,2013-05-21 20:15:00,
2013-05-21 13:20:00,66.7,46.4,29.54,SSW,207,4.0,16.0,48,0.00,,---,0.00,VWS V13.01,2013-05-21 20:20:00,
2013-05-21 13:25:00,66.4,46.7,23.45,NNW,329,7.0,16.0,49,0.00,,---,0.00,VWS V13.01,2013-05-21 20:25:00,
2013-05-21 13:30:00,65.7,46.6,23.45,WNW,288,12.0,19.0,50,0.00,,---,0.00,VWS V13.01,2013-05-21 20:30:00,
2013-05-21 13:35:00,64.9,46.4,23.45,WNW,298,7.0,19.0,51,0.00,,---,0.00,VWS V13.01,2013-05-21 20:35:00,
2013-05-21 13:40:00,65.0,46.5,23.45,NW,311,6.0,19.0,51,0.00,,---,0.00,VWS V13.01,2013-05-21 20:40:00,
2013-05-21 13:45:00,65.0,46.5,29.54,WNW,284,12.0,19.0,51,0.00,,---,0.00,VWS V13.01,2013-05-21 20:45:00,
2013-05-21 13:50:00,65.1,47.1,29.54,SSW,205,18.0,20.0,52,0.00,,---,0.00,VWS V13.01,2013-05-21 20:50:00,
2013-05-21 13:55:00,65.1,47.1,29.54,WSW,242,1.0,20.0,52,0.00,,---,0.00,VWS V13.01,2013-05-21 20:55:00,
2013-05-21 14:00:00,65.6,46.5,29.54,West,275,12.0,20.0,50,0.00,,---,0.00,VWS V13.01,2013-05-21 21:00:00,
2013-05-21 14:05:00,65.1,46.5,29.54,West,269,10.0,16.0,51,0.00,,---,0.00,VWS V13.01,2013-05-21 21:05:00,
2013-05-21 14:10:00,65.6,47.0,29.54,WNW,301,12.0,16.0,51,0.00,,---,0.00,VWS V13.01,2013-05-21 21:10:00,
2013-05-21 14:15:00,65.8,47.2,29.54,West,271,17.0,17.0,51,0.00,,---,0.00,VWS V13.01,2013-05-21 21:15:00,
2013-05-21 14:20:00,65.4,47.3,29.54,North,355,8.0,20.0,52,0.00,,---,0.00,VWS V13.01,2013-05-21 21:20:00,
2013-05-21 14:25:00,65.3,46.2,29.54,NW,309,7.0,20.0,50,0.00,,---,0.00,VWS V13.01,2013-05-21 21:25:00,
2013-05-21 14:30:00,65.5,47.4,29.54,WNW,286,8.0,20.0,52,0.00,,---,0.00,VWS V13.01,2013-05-21 21:30:00,
2013-05-21 14:35:00,65.7,47.6,18.12,NNW,347,6.0,20.0,52,0.00,,---,0.00,VWS V13.01,2013-05-21 21:35:00,
2013-05-21 14:40:00,65.6,46.5,18.12,WNW,286,2.0,20.0,50,0.00,,---,0.00,VWS V13.01,2013-05-21 21:40:00,
2013-05-21 14:45:00,65.3,46.7,18.12,NW,319,3.0,20.0,51,0.00,,---,0.00,VWS V13.01,2013-05-21 21:45:00,
2013-05-21 14:50:00,65.7,47.1,18.12,WSW,254,20.0,20.0,51,0.00,,---,0.00,VWS V13.01,2013-05-21 21:50:00,
2013-05-21 14:55:00,65.4,46.8,21.42,NW,309,10.0,21.0,51,0.00,,---,0.00,VWS V13.01,2013-05-21 21:55:00,
2013-05-21 15:00:00,64.7,45.7,18.12,NNE,27,6.0,21.0,50,0.00,,---,0.00,VWS V13.01,2013-05-21 22:00:00,
2013-05-21 15:05:00,64.5,46.0,18.12,NW,320,5.0,16.0,51,0.00,,---,0.00,VWS V13.01,2013-05-21 22:05:00,
2013-05-21 15:10:00,64.7,46.2,18.12,NNW,333,3.0,16.0,51,0.00,,---,0.00,VWS V13.01,2013-05-21 22:10:00,
2013-05-21 15:15:00,65.0,46.5,18.12,NNW,333,4.0,16.0,51,0.00,,---,0.00,VWS V13.01,2013-05-21 22:15:00,
2013-05-21 15:20:00,65.3,46.7,21.42,NW,309,7.0,16.0,51,0.00,,---,0.00,VWS V13.01,2013-05-21 22:20:00,
2013-05-21 15:25:00,64.8,45.7,24.71,NNW,341,9.0,21.0,50,0.00,,---,0.00,VWS V13.01,2013-05-21 22:25:00,
2013-05-21 15:30:00,64.0,46.0,24.71,NW,321,12.0,21.0,52,0.00,,---,0.00,VWS V13.01,2013-05-21 22:30:00,
2013-05-21 15:35:00,63.7,45.8,24.71,NNW,331,4.0,21.0,52,0.00,,---,0.00,VWS V13.01,2013-05-21 22:35:00,
2013-05-21 15:40:00,64.0,46.5,24.71,West,274,6.0,21.0,53,0.00,,---,0.00,VWS V13.01,2013-05-21 22:40:00,
2013-05-21 15:45:00,64.7,46.2,24.71,WNW,291,6.0,21.0,51,0.00,,---,0.00,VWS V13.01,2013-05-21 22:45:00,
2013-05-21 15:50:00,63.8,46.4,18.12,West,277,8.0,21.0,53,0.00,,---,0.00,VWS V13.01,2013-05-21 22:50:00,
2013-05-21 15:55:00,63.7,45.8,18.12,WSW,248,9.0,21.0,52,0.00,,---,0.00,VWS V13.01,2013-05-21 22:55:00,
2013-05-21 16:00:00,63.9,46.5,18.12,WNW,291,15.0,21.0,53,0.00,,---,0.00,VWS V13.01,2013-05-21 23:00:00,
2013-05-21 16:05:00,63.6,45.7,18.12,NNW,339,6.0,12.0,52,0.00,,---,0.00,VWS V13.01,2013-05-21 23:05:00,
2013-05-21 16:10:00,63.8,46.4,18.12,WNW,302,4.0,19.0,53,0.00,,---,0.00,VWS V13.01,2013-05-21 23:10:00,
2013-05-21 16:15:00,63.6,45.7,18.12,NW,310,8.0,19.0,52,0.00,,---,0.00,VWS V13.01,2013-05-21 23:15:00,
2013-05-21 16:20:00,63.2,45.3,18.12,ENE,63,3.0,22.0,52,0.00,,---,0.00,VWS V13.01,2013-05-21 23:20:00,
2013-05-21 16:25:00,63.2,45.3,18.12,NW,312,10.0,22.0,52,0.00,,---,0.00,VWS V13.01,2013-05-21 23:25:00,
2013-05-21 16:30:00,63.6,45.7,18.12,NNE,22,0.0,22.0,52,0.00,,---,0.00,VWS V13.01,2013-05-21 23:30:00,
2013-05-21 16:35:00,63.2,45.3,18.12,NW,321,0.0,22.0,52,0.00,,---,0.00,VWS V13.01,2013-05-21 23:35:00,
2013-05-21 16:40:00,62.8,45.4,18.12,West,273,6.0,22.0,53,0.00,,---,0.00,VWS V13.01,2013-05-21 23:40:00,
2013-05-21 16:45:00,62.5,45.7,18.12,NNW,327,13.0,22.0,54,0.00,,---,0.00,VWS V13.01,2013-05-21 23:45:00,
2013-05-21 16:50:00,62.2,45.4,23.30,West,268,3.0,30.0,54,0.00,,---,0.00,VWS V13.01,2013-05-21 23:50:00,
2013-05-21 16:55:00,62.1,45.8,23.30,West,267,5.0,30.0,55,0.00,,---,0.00,VWS V13.01,2013-05-21 23:55:00,
2013-05-21 17:00:00,62.0,45.7,23.30,NW,323,3.0,30.0,55,0.00,,---,0.00,VWS V13.01,2013-05-22 00:00:00,
2013-05-21 17:05:00,61.8,45.5,23.30,SW,230,7.0,33.0,55,0.00,,---,0.00,VWS V13.01,2013-05-22 00:05:00,
2013-05-21 17:10:00,61.4,45.6,23.30,NNW,338,8.0,33.0,56,0.00,,---,0.00,VWS V13.01,2013-05-22 00:10:00,
2013-05-21 17:15:00,61.1,45.3,23.30,West,268,4.0,33.0,56,0.00,,---,0.00,VWS V13.01,2013-05-22 00:15:00,
2013-05-21 17:20:00,61.6,45.8,23.30,WNW,298,14.0,33.0,56,0.00,,---,0.00,VWS V13.01,2013-05-22 00:20:00,
2013-05-21 17:25:00,61.2,45.9,23.30,NW,304,7.0,33.0,57,0.00,,---,0.00,VWS V13.01,2013-05-22 00:25:00,
2013-05-21 17:30:00,60.9,45.6,23.30,West,276,6.0,33.0,57,0.00,,---,0.00,VWS V13.01,2013-05-22 00:30:00,
2013-05-21 17:35:00,60.7,45.8,23.30,WNW,300,10.0,33.0,58,0.00,,---,0.00,VWS V13.01,2013-05-22 00:35:00,
2013-05-21 17:40:00,60.9,46.0,23.30,NW,315,3.0,33.0,58,0.00,,---,0.00,VWS V13.01,2013-05-22 00:40:00,
2013-05-21 17:45:00,61.0,45.7,23.30,WNW,287,17.0,33.0,57,0.00,,---,0.00,VWS V13.01,2013-05-22 00:45:00,
2013-05-21 17:50:00,61.0,45.7,23.30,NNW,333,2.0,33.0,57,0.00,,---,0.00,VWS V13.01,2013-05-22 00:50:00,
2013-05-21 17:55:00,60.9,45.6,23.30,West,264,11.0,33.0,57,0.00,,---,0.00,VWS V13.01,2013-05-22 00:55:00,
2013-05-21 18:00:00,61.1,45.8,23.30,WNW,296,10.0,33.0,57,0.00,,---,0.00,VWS V13.01,2013-05-22 01:00:00,
2013-05-21 18:05:00,61.1,45.3,23.30,NNW,337,0.0,13.0,56,0.00,,---,0.00,VWS V13.01,2013-05-22 01:05:00,
2013-05-21 18:10:00,61.0,45.7,23.30,NNW,331,3.0,20.0,57,0.00,,---,0.00,VWS V13.01,2013-05-22 01:10:00,
2013-05-21 18:15:00,60.6,45.8,23.30,SW,236,6.0,20.0,58,0.00,,---,0.00,VWS V13.01,2013-05-22 01:15:00,
2013-05-21 18:20:00,60.9,46.0,23.30,West,278,2.0,20.0,58,0.00,,---,0.00,VWS V13.01,2013-05-22 01:20:00,
2013-05-21 18:25:00,61.0,45.7,23.30,West,264,3.0,20.0,57,0.00,,---,0.00,VWS V13.01,2013-05-22 01:25:00,
2013-05-21 18:30:00,60.9,46.0,23.30,SW,224,0.0,20.0,58,0.00,,---,0.00,VWS V13.01,2013-05-22 01:30:00,
2013-05-21 18:35:00,61.3,45.5,23.30,SW,236,11.0,20.0,56,0.00,,---,0.00,VWS V13.01,2013-05-22 01:35:00,
2013-05-21 18:40:00,61.2,45.9,23.30,WNW,299,9.0,20.0,57,0.00,,---,0.00,VWS V13.01,2013-05-22 01:40:00,
2013-05-21 18:45:00,60.6,45.3,28.11,NNW,329,0.0,20.0,57,0.00,,---,0.00,VWS V13.01,2013-05-22 01:45:00,
2013-05-21 18:50:00,60.3,45.0,28.11,WNW,288,10.0,20.0,57,0.00,,---,0.00,VWS V13.01,2013-05-22 01:50:00,
2013-05-21 18:55:00,59.6,44.8,28.11,NNW,337,1.0,20.0,58,0.00,,---,0.00,VWS V13.01,2013-05-22 01:55:00,
2013-05-21 19:00:00,59.2,44.5,28.11,NW,307,1.0,20.0,58,0.00,,---,0.00,VWS V13.01,2013-05-22 02:00:00,
2013-05-21 19:05:00,59.4,44.6,28.11,WNW,286,6.0,19.0,58,0.00,,---,0.00,VWS V13.01,2013-05-22 02:05:00,
2013-05-21 19:10:00,58.9,44.6,28.11,SW,223,4.0,19.0,59,0.00,,---,0.00,VWS V13.01,2013-05-22 02:10:00,
2013-05-21 19:15:00,58.1,44.3,28.11,NW,313,0.0,19.0,60,0.00,,---,0.00,VWS V13.01,2013-05-22 02:15:00,
2013-05-21 19:20:00,57.6,44.3,28.11,WNW,292,7.0,19.0,61,0.00,,---,0.00,VWS V13.01,2013-05-22 02:20:00,
2013-05-21 19:25:00,57.5,44.2,28.11,WSW,250,6.0,19.0,61,0.00,,---,0.00,VWS V13.01,2013-05-22 02:25:00,
2013-05-21 19:30:00,57.2,43.9,28.11,SSW,211,2.0,20.0,61,0.00,,---,0.00,VWS V13.01,2013-05-22 02:30:00,
2013-05-21 19:35:00,56.9,43.6,28.11,NW,320,2.0,20.0,61,0.00,,---,0.00,VWS V13.01,2013-05-22 02:35:00,
2013-05-21 19:40:00,56.8,44.3,28.11,West,271,4.0,20.0,63,0.00,,---,0.00,VWS V13.01,2013-05-22 02:40:00,
2013-05-21 19:45:00,56.5,44.1,28.11,NW,317,1.0,20.0,63,0.00,,---,0.00,VWS V13.01,2013-05-22 02:45:00,
2013-05-21 19:50:00,56.0,44.0,28.11,SSW,203,10.0,24.0,64,0.00,,---,0.00,VWS V13.01,2013-05-22 02:50:00,
2013-05-21 19:55:00,55.5,43.9,18.12,West,273,3.0,24.0,65,0.00,,---,0.00,VWS V13.01,2013-05-22 02:55:00,
2013-05-21 19:58:00,53.1,42.8,29.54,WSW,253,6.0,26.0,68,0.00,,---,0.00,VWS V13.01,2013-05-22 02:58:00,
2013-05-21 19:59:00,53.2,42.9,29.54,SSW,194,5.0,26.0,68,0.00,,---,0.00,VWS V13.01,2013-05-22 02:59:00,
2013-05-21 20:00:00,55.4,43.8,24.71,WNW,294,9.0,24.0,65,0.00,,---,0.00,VWS V13.01,2013-05-22 03:00:00,
2013-05-21 20:01:00,53.1,42.5,29.54,West,271,4.0,7.0,67,0.00,,---,0.00,VWS V13.01,2013-05-22 03:01:00,
2013-05-21 20:02:00,53.1,42.5,29.54,WNW,290,11.0,11.0,67,0.00,,---,0.00,VWS V13.01,2013-05-22 03:02:00,
2013-05-21 20:03:00,53.1,42.5,29.54,WNW,292,1.0,11.0,67,0.00,,---,0.00,VWS V13.01,2013-05-22 03:03:00,
2013-05-21 20:05:00,55.1,43.6,24.71,SE,136,6.0,14.0,65,0.00,,---,0.00,VWS V13.01,2013-05-22 03:05:00,
2013-05-21 20:10:00,54.8,43.3,24.71,NW,309,6.0,24.0,65,0.00,,---,0.00,VWS V13.01,2013-05-22 03:10:00,
2013-05-21 20:15:00,54.5,43.0,18.12,NW,323,0.0,26.0,65,0.00,,---,0.00,VWS V13.01,2013-05-22 03:15:00,
2013-05-21 20:20:00,54.3,42.8,18.12,WNW,296,7.0,26.0,65,0.00,,---,0.00,VWS V13.01,2013-05-22 03:20:00,
2013-05-21 20:25:00,54.2,42.7,18.12,SE,138,1.0,26.0,65,0.00,,---,0.00,VWS V13.01,2013-05-22 03:25:00,
2013-05-21 20:30:00,54.1,43.0,18.12,WNW,296,1.0,26.0,66,0.00,,---,0.00,VWS V13.01,2013-05-22 03:30:00,
2013-05-21 20:35:00,53.9,42.8,18.12,SW,229,0.0,26.0,66,0.00,,---,0.00,VWS V13.01,2013-05-22 03:35:00,
2013-05-21 20:40:00,53.8,42.7,18.12,West,281,13.0,26.0,66,0.00,,---,0.00,VWS V13.01,2013-05-22 03:40:00,
2013-05-21 20:45:00,53.5,42.8,23.45,NW,314,1.0,26.0,67,0.00,,---,0.00,VWS V13.01,2013-05-22 03:45:00,
2013-05-21 20:50:00,53.4,42.7,23.45,West,268,11.0,26.0,67,0.00,,---,0.00,VWS V13.01,2013-05-22 03:50:00,
2013-05-21 20:55:00,53.3,42.6,23.45,WSW,254,1.0,26.0,67,0.00,,---,0.00,VWS V13.01,2013-05-22 03:55:00,
2013-05-21 21:00:00,53.2,42.9,29.54,NW,309,0.0,26.0,68,0.00,,---,0.00,VWS V13.01,2013-05-22 04:00:00,
2013-05-21 21:03:00,53.2,42.5,29.54,West,267,7.0,7.0,67,0.00,,---,0.00,VWS V13.01,2013-05-22 04:03:00,
2013-05-21 21:08:00,53.1,42.5,29.54,West,263,9.0,12.0,67,0.00,,---,0.00,VWS V13.01,2013-05-22 04:08:00,
2013-05-21 21:13:00,52.9,42.3,29.54,SW,226,1.0,16.0,67,0.00,,---,0.00,VWS V13.01,2013-05-22 04:13:00,
2013-05-21 21:18:00,52.8,42.2,29.54,WSW,253,6.0,18.0,67,0.00,,---,0.00,VWS V13.01,2013-05-22 04:18:00,
2013-05-21 21:23:00,52.8,42.2,29.54,NNW,339,9.0,18.0,67,0.00,,---,0.00,VWS V13.01,2013-05-22 04:23:00,
2013-05-21 21:28:00,52.7,42.1,29.54,West,281,3.0,18.0,67,0.00,,---,0.00,VWS V13.01,2013-05-22 04:28:00,
2013-05-21 21:33:00,52.6,42.0,29.54,SW,220,4.0,18.0,67,0.00,,---,0.00,VWS V13.01,2013-05-22 04:33:00,
2013-05-21 21:38:00,52.5,42.3,29.54,SSW,205,4.0,18.0,68,0.00,,---,0.00,VWS V13.01,2013-05-22 04:38:00,
2013-05-21 21:43:00,52.4,42.2,29.54,WNW,284,3.0,18.0,68,0.00,,---,0.00,VWS V13.01,2013-05-22 04:43:00,
2013-05-21 21:48:00,52.3,42.1,29.54,WSW,257,16.0,18.0,68,0.00,,---,0.00,VWS V13.01,2013-05-22 04:48:00,
2013-05-21 21:53:00,52.3,42.1,29.54,WNW,287,4.0,18.0,68,0.00,,---,0.00,VWS V13.01,2013-05-22 04:53:00,
2013-05-21 21:58:00,52.2,42.0,29.54,WNW,288,11.0,18.0,68,0.00,,---,0.00,VWS V13.01,2013-05-22 04:58:00,
2013-05-21 22:03:00,52.0,42.2,29.54,WNW,302,7.0,16.0,69,0.00,,---,0.00,VWS V13.01,2013-05-22 05:03:00,
2013-05-21 22:08:00,52.0,42.2,29.54,SSW,203,3.0,16.0,69,0.00,,---,0.00,VWS V13.01,2013-05-22 05:08:00,
2013-05-21 22:13:00,51.9,41.7,29.54,NW,315,3.0,16.0,68,0.00,,---,0.00,VWS V13.01,2013-05-22 05:13:00,
2013-05-21 22:18:00,51.9,41.7,29.54,West,259,0.0,16.0,68,0.00,,---,0.00,VWS V13.01,2013-05-22 05:18:00,
2013-05-21 22:23:00,51.9,41.7,29.54,WNW,299,11.0,16.0,68,0.00,,---,0.00,VWS V13.01,2013-05-22 05:23:00,
2013-05-21 22:28:00,51.8,41.2,29.54,West,276,3.0,16.0,67,0.00,,---,0.00,VWS V13.01,2013-05-22 05:28:00,
2013-05-21 22:33:00,51.7,41.1,29.54,WSW,252,7.0,16.0,67,0.00,,---,0.00,VWS V13.01,2013-05-22 05:33:00,
2013-05-21 22:38:00,51.6,41.4,29.54,NNW,334,3.0,16.0,68,0.00,,---,0.00,VWS V13.01,2013-05-22 05:38:00,
2013-05-21 22:43:00,51.5,41.3,29.54,WNW,292,3.0,16.0,68,0.00,,---,0.00,VWS V13.01,2013-05-22 05:43:00,
2013-05-21 22:48:00,51.4,41.2,29.54,WSW,248,1.0,16.0,68,0.00,,---,0.00,VWS V13.01,2013-05-22 05:48:00,
2013-05-21 22:53:00,51.4,41.2,29.54,WNW,286,6.0,16.0,68,0.00,,---,0.00,VWS V13.01,2013-05-22 05:53:00,
2013-05-21 22:58:00,51.3,41.1,16.48,West,277,4.0,16.0,68,0.00,,---,0.00,VWS V13.01,2013-05-22 05:58:00,
2013-05-21 23:03:00,51.3,41.1,16.48,WNW,297,0.0,3.0,68,0.00,,---,0.00,VWS V13.01,2013-05-22 06:03:00,
2013-05-21 23:08:00,51.3,40.7,16.48,NW,307,3.0,10.0,67,0.00,,---,0.00,VWS V13.01,2013-05-22 06:08:00,
2013-05-21 23:13:00,51.3,40.7,16.48,WNW,284,3.0,10.0,67,0.00,,---,0.00,VWS V13.01,2013-05-22 06:13:00,
2013-05-21 23:18:00,51.2,40.6,16.48,NNW,344,3.0,10.0,67,0.00,,---,0.00,VWS V13.01,2013-05-22 06:18:00,
2013-05-21 23:23:00,51.2,40.6,16.51,NW,318,7.0,12.0,67,0.00,,---,0.00,VWS V13.01,2013-05-22 06:23:00,
2013-05-21 23:28:00,51.2,40.2,16.51,ENE,59,3.0,12.0,66,0.00,,---,0.00,VWS V13.01,2013-05-22 06:28:00,
2013-05-21 23:33:00,51.3,40.3,16.51,WNW,298,5.0,14.0,66,0.00,,---,0.00,VWS V13.01,2013-05-22 06:33:00,
2013-05-21 23:38:00,51.3,40.0,16.51,North,349,12.0,16.0,65,0.00,,---,0.00,VWS V13.01,2013-05-22 06:38:00,
2013-05-21 23:43:00,51.2,40.2,16.51,East,79,5.0,16.0,66,0.00,,---,0.00,VWS V13.01,2013-05-22 06:43:00,
2013-05-21 23:48:00,51.2,39.8,16.51,NW,312,9.0,22.0,65,0.00,,---,0.00,VWS V13.01,2013-05-22 06:48:00,
2013-05-21 23:53:00,51.2,39.8,29.78,NNW,337,0.0,22.0,65,0.00,,---,0.00,VWS V13.01,2013-05-22 06:53:00,
2013-05-21 23:58:00,51.2,39.0,29.78,NW,326,1.0,22.0,63,0.00,,---,0.00,VWS V13.01,2013-05-22 06:58:00,